When you browse on this site, cookies collect data to enhance your experience and personalize the content and advertising you see.
Visit our Privacy Policy to learn more. By continuing to use the site, you agree to this use of cookies and data.
  • En España
  • Lista de países
  • Para 7 días
  • Temperatura del agua
  • El tiempo en el mapa
  • Informadores
  • user-avatar
    Iniciar sesión

    Tiempo cada hora Tamale

    Hoy, 24 Febrero, Lunes

    Tiempo Temperatura Precipitaciones Viento Presión Humedad
    00:00 +30°C° 0 mm 2 mps 741 mmHg 17%
    01:00 +29°C° 0 mm 2 mps 741 mmHg 17%
    02:00 +28°C° 0 mm 2 mps 741 mmHg 18%
    03:00 +28°C° 0 mm 2 mps 741 mmHg 18%
    04:00 +27°C° 0 mm 2 mps 741 mmHg 18%
    05:00 +26°C° 0 mm 2 mps 742 mmHg 18%
    06:00 +25°C° 0 mm 2 mps 742 mmHg 18%
    07:00 +28°C° 0 mm 2 mps 743 mmHg 15%
    08:00 +31°C° 0 mm 3 mps 743 mmHg 13%
    09:00 +36°C° 0 mm 4 mps 744 mmHg 10%
    10:00 +38°C° 0 mm 4 mps 743 mmHg 9%
    11:00 +41°C° 0 mm 4 mps 742 mmHg 8%
    12:00 +43°C° 0 mm 3 mps 742 mmHg 7%
    13:00 +44°C° 0 mm 3 mps 741 mmHg 6%
    14:00 +44°C° 0 mm 3 mps 740 mmHg 6%
    15:00 +45°C° 0 mm 3 mps 739 mmHg 6%
    16:00 +43°C° 0 mm 3 mps 739 mmHg 7%
    17:00 +40°C° 0 mm 2 mps 739 mmHg 8%
    18:00 +37°C° 0 mm 2 mps 739 mmHg 9%
    19:00 +35°C° 0 mm 2 mps 739 mmHg 10%
    20:00 +32°C° 0 mm 2 mps 740 mmHg 11%
    21:00 +30°C° 0 mm 2 mps 741 mmHg 12%
    22:00 +30°C° 0 mm 2 mps 741 mmHg 12%
    23:00 +29°C° 0 mm 2 mps 741 mmHg 12%

    Mañana, 25 Febrero, Martes

    Tiempo Temperatura Precipitaciones Viento Presión Humedad
    00:00 +28°C° 0 mm 2 mps 741 mmHg 13%
    01:00 +27°C° 0 mm 2 mps 741 mmHg 14%
    02:00 +27°C° 0 mm 2 mps 741 mmHg 15%
    03:00 +26°C° 0 mm 2 mps 741 mmHg 16%
    04:00 +25°C° 0 mm 1 mps 741 mmHg 17%
    05:00 +24°C° 0 mm 1 mps 741 mmHg 19%
    06:00 +24°C° 0 mm 1 mps 742 mmHg 20%
    07:00 +26°C° 0 mm 1 mps 742 mmHg 17%
    08:00 +29°C° 0 mm 2 mps 743 mmHg 15%
    09:00 +33°C° 0 mm 3 mps 744 mmHg 12%
    10:00 +35°C° 0 mm 3 mps 743 mmHg 10%
    11:00 +38°C° 0 mm 3 mps 742 mmHg 9%
    12:00 +40°C° 0 mm 3 mps 742 mmHg 8%
    13:00 +41°C° 0 mm 2 mps 741 mmHg 7%
    14:00 +42°C° 0 mm 2 mps 740 mmHg 7%
    15:00 +43°C° 0 mm 2 mps 739 mmHg 7%
    16:00 +40°C° 0 mm 1 mps 739 mmHg 8%
    17:00 +37°C° 0 mm 1 mps 739 mmHg 9%
    18:00 +35°C° 0 mm 1 mps 739 mmHg 11%
    19:00 +33°C° 0 mm 1 mps 739 mmHg 11%
    20:00 +31°C° 0 mm 1 mps 740 mmHg 12%
    21:00 +30°C° 0 mm 1 mps 741 mmHg 13%
    22:00 +29°C° 0 mm 1 mps 740 mmHg 14%
    23:00 +28°C° 0 mm 1 mps 740 mmHg 14%

    Pasado mañana, 26 Febrero, Miércoles

    Tiempo Temperatura Precipitaciones Viento Presión Humedad
    00:00 +27°C° 0 mm 1 mps 740 mmHg 15%
    01:00 +26°C° 0 mm 1 mps 740 mmHg 16%
    02:00 +25°C° 0 mm 1 mps 740 mmHg 16%
    03:00 +24°C° 0 mm 1 mps 740 mmHg 17%
    04:00 +24°C° 0 mm 1 mps 740 mmHg 18%
    05:00 +23°C° 0 mm 1 mps 740 mmHg 20%
    06:00 +20°C° 0 mm 0 mps 741 mmHg 21%
    07:00 +24°C° 0 mm 0 mps 741 mmHg 20%
    08:00 +27°C° 0 mm 0 mps 742 mmHg 20%
    09:00 +31°C° 0 mm 0 mps 742 mmHg 19%
    10:00 +36°C° 0 mm 1 mps 742 mmHg 15%
    11:00 +40°C° 0 mm 1 mps 741 mmHg 12%
    12:00 +42°C° 0 mm 1 mps 741 mmHg 8%
    13:00 +43°C° 0 mm 1 mps 740 mmHg 7%
    14:00 +43°C° 0 mm 1 mps 739 mmHg 7%
    15:00 +44°C° 0 mm 1 mps 738 mmHg 7%
    16:00 +41°C° 0 mm 1 mps 738 mmHg 8%
    17:00 +39°C° 0 mm 1 mps 738 mmHg 9%
    18:00 +35°C° 0 mm 1 mps 738 mmHg 10%
    19:00 +33°C° 0 mm 1 mps 739 mmHg 11%
    20:00 +32°C° 0 mm 1 mps 739 mmHg 12%
    21:00 +30°C° 0 mm 1 mps 740 mmHg 12%
    22:00 +29°C° 0 mm 1 mps 740 mmHg 13%
    23:00 +28°C° 0 mm 1 mps 740 mmHg 14%

    27 Febrero, Jueves

    Tiempo Temperatura Precipitaciones Viento Presión Humedad
    00:00 +28°C° 0 mm 1 mps 740 mmHg 14%
    01:00 +27°C° 0 mm 1 mps 740 mmHg 17%
    02:00 +26°C° 0 mm 1 mps 740 mmHg 19%
    03:00 +25°C° 0 mm 1 mps 739 mmHg 21%
    04:00 +24°C° 0 mm 1 mps 740 mmHg 34%
    05:00 +22°C° 0 mm 0 mps 740 mmHg 46%
    06:00 +21°C° 0 mm 0 mps 740 mmHg 59%
    07:00 +26°C° 0 mm 1 mps 741 mmHg 59%
    08:00 +29°C° 0 mm 1 mps 742 mmHg 60%
    09:00 +31°C° 0 mm 2 mps 743 mmHg 60%
    10:00 +35°C° 0 mm 1 mps 742 mmHg 47%
    11:00 +40°C° 0 mm 1 mps 742 mmHg 33%
    12:00 +44°C° 0 mm 1 mps 741 mmHg 20%
    13:00 +44°C° 0 mm 1 mps 740 mmHg 18%
    14:00 +44°C° 0 mm 1 mps 739 mmHg 16%
    15:00 +45°C° 0 mm 1 mps 739 mmHg 15%
    16:00 +42°C° 0 mm 1 mps 739 mmHg 17%
    17:00 +37°C° 0 mm 0 mps 739 mmHg 19%
    18:00 +34°C° 0 mm 0 mps 739 mmHg 22%
    19:00 +33°C° 0 mm 0 mps 739 mmHg 23%
    20:00 +32°C° 0 mm 0 mps 740 mmHg 25%
    21:00 +32°C° 0 mm 1 mps 740 mmHg 27%
    22:00 +29°C° 0 mm 0 mps 740 mmHg 29%
    23:00 +28°C° 0 mm 0 mps 740 mmHg 31%

    28 Febrero, Viernes

    Tiempo Temperatura Precipitaciones Viento Presión Humedad
    00:00 +28°C° 0 mm 0 mps 740 mmHg 33%
    01:00 +29°C° 0 mm 1 mps 740 mmHg 37%
    02:00 +28°C° 0 mm 1 mps 740 mmHg 41%
    03:00 +28°C° 0 mm 1 mps 740 mmHg 45%
    04:00 +27°C° 0 mm 1 mps 740 mmHg 55%
    05:00 +26°C° 0 mm 1 mps 741 mmHg 65%
    06:00 +26°C° 0 mm 1 mps 741 mmHg 76%
    07:00 +28°C° 0 mm 1 mps 742 mmHg 69%
    08:00 +30°C° 0 mm 2 mps 742 mmHg 62%
    09:00 +34°C° 0 mm 2 mps 743 mmHg 54%
    10:00 +37°C° 0 mm 1 mps 743 mmHg 42%
    11:00 +42°C° 0 mm 1 mps 742 mmHg 30%
    12:00 +43°C° 0 mm 0 mps 742 mmHg 18%
    13:00 +43°C° 0 mm 0 mps 741 mmHg 17%
    14:00 +43°C° 0 mm 0 mps 740 mmHg 16%
    15:00 +46°C° 0 mm 1 mps 739 mmHg 15%
    16:00 +43°C° 0 mm 1 mps 739 mmHg 17%
    17:00 +41°C° 0 mm 1 mps 739 mmHg 19%
    18:00 +35°C° 0 mm 0 mps 739 mmHg 21%
    19:00 +34°C° 0 mm 0 mps 739 mmHg 23%
    20:00 +32°C° 0 mm 0 mps 739 mmHg 24%
    21:00 +33°C° 0 mm 1 mps 740 mmHg 26%
    22:00 +32°C° 0 mm 1 mps 740 mmHg 29%
    23:00 +31°C° 0 mm 1 mps 740 mmHg 31%

    29 Febrero, Sábado

    Tiempo Temperatura Precipitaciones Viento Presión Humedad
    00:00 +30°C° 0 mm 1 mps 740 mmHg 34%
    01:00 +29°C° 0 mm 1 mps 740 mmHg 39%
    02:00 +28°C° 0 mm 1 mps 740 mmHg 45%
    03:00 +27°C° 0 mm 1 mps 739 mmHg 51%
    04:00 +27°C° 0 mm 1 mps 740 mmHg 59%
    05:00 +26°C° 0 mm 1 mps 740 mmHg 68%
    06:00 +26°C° 0 mm 1 mps 740 mmHg 76%
    07:00 +28°C° 0 mm 1 mps 741 mmHg 69%
    08:00 +30°C° 0 mm 2 mps 741 mmHg 61%
    09:00 +34°C° 0 mm 2 mps 742 mmHg 54%
    10:00 +37°C° 0 mm 2 mps 741 mmHg 42%
    11:00 +41°C° 0 mm 1 mps 741 mmHg 29%
    12:00 +45°C° 0 mm 1 mps 740 mmHg 17%
    13:00 +45°C° 0 mm 1 mps 739 mmHg 15%
    14:00 +45°C° 0 mm 1 mps 738 mmHg 13%
    15:00 +45°C° 0 mm 1 mps 737 mmHg 11%
    16:00 +43°C° 0 mm 1 mps 737 mmHg 12%
    17:00 +41°C° 0 mm 1 mps 737 mmHg 13%
    18:00 +39°C° 0 mm 1 mps 737 mmHg 14%
    19:00 +36°C° 0 mm 1 mps 738 mmHg 15%
    20:00 +34°C° 0 mm 1 mps 738 mmHg 16%
    21:00 +33°C° 0 mm 1 mps 739 mmHg 16%
    22:00 +32°C° 0 mm 1 mps 739 mmHg 18%
    23:00 +31°C° 0 mm 1 mps 739 mmHg 20%
    Mostrar más